Location: Trebic
(49.2170°N, 15.8830°E)
Time: 20:56:49
(UTC+02:00)

Transit 2A Rocket - Pass Details

Date: 26 July 2019
Orbit: 590 x 913 km, 66.7° (Epoch: 16 August)

Event Time Altitude Azimuth Distance (km) Brightness Sun altitude
Rises 02:06:02 0° 182° (S) 3,516 - -19.8°
Reaches altitude 10° 02:08:49 10° 173° (S) 2,558 - -19.7°
Exits shadow 02:11:37 24° 152° (SSE) 1,758 6.5 -19.6°
Maximum altitude 02:14:00 32° 113° (ESE) 1,454 6.4 -19.5°
Drops below altitude 10° 02:18:55 10° 52° (NE) 2,431 8.4 -19.2°
Sets 02:21:30 0° 43° (NE) 3,316 9.5 -19.1°
